Wind_Speed
69 69 69 68 67 67 67 65 63 61 61 60 59 57 56 55 54 52 51 50 49 48 48 47 47 46 46 45 44 44 44 43 43 42 41 41 40 39 39 38 38 38 38 38 38 38 38 38 38 38 38 38 38 38 38 38 38 38 38 38 38 39 39 40 41 41 42 41 41 40 40 41 42 43 44 44 44 45 44 44 45 45 46 47 48 48
69 69 68 67 65 64 64 63 61 58 57 57 57 55 54 53 52 51 50 48 47 47 46 46 46 46 46 45 45 44 43 42 42 41 40 39 39 38 38 38 38 38 38 38 38 39 39 39 39 39 39 39 39 38 38 37 37 36 36 36 36 36 36 36 36 35 35 36 37 38 41 42 43 43 43 44 44 44 44 44 44 45 46 46 47 48
67 67 66 65 63 61 61 60 59 57 55 54 54 53 52 51 50 49 48 47 47 46 46 47 47 47 47 46 44 43 42 41 41 40 40 39 39 39 39 39 38 39 39 39 39 39 39 40 40 40 40 39 39 39 38 38 37 36 36 35 35 34 34 32 32 32 33 34 36 39 43 45 45 45 45 45 45 45 45 45 45 46 47 47 48 48
64 63 63 62 60 59 58 56 56 55 54 53 52 51 50 49 49 49 48 48 48 48 48 48 48 47 46 45 43 42 41 41 40 40 40 40 39 39 39 38 38 38 38 38 38 39 39 39 39 39 39 39 39 39 39 38 38 37 36 34 33 32 31 30 31 32 34 36 39 43 46 48 48 48 49 49 48 48 48 48 49 49 50 50 50 50
61 60 59 59 58 57 56 54 53 52 52 51 50 50 49 49 50 50 49 50 50 50 50 49 47 46 45 44 43 42 41 41 41 40 39 39 38 37 37 36 36 36 36 36 36 37 37 37 37 37 37 38 38 38 38 38 37 36 34 32 31 31 31 32 34 36 38 40 43 46 49 50 50 50 50 51 51 52 52 53 53 54 55 55 55 54
59 57 56 55 55 54 54 53 52 51 51 50 50 50 50 50 51 51 52 52 51 51 49 48 46 45 44 43 43 42 42 41 40 39 38 36 35 35 34 34 34 34 34 34 34 34 35 35 35 35 36 36 36 37 37 36 35 33 32 32 33 35 36 37 39 40 42 44 46 49 51 51 51 50 50 51 52 53 54 55 56 57 58 58 58 58
56 55 53 52 52 53 52 52 51 50 51 51 52 52 52 52 52 52 52 52 51 50 48 46 45 44 43 43 43 42 41 40 38 36 35 34 33 32 32 32 32 32 32 32 32 32 33 33 33 34 34 34 35 35 35 35 34 34 34 36 38 40 42 43 44 45 45 47 48 49 50 50 50 50 50 51 52 53 55 56 57 58 59 59 60 60
54 53 52 51 51 52 52 52 51 50 51 52 53 54 53 52 52 52 51 50 49 48 47 46 45 44 43 42 42 40 39 37 35 34 33 32 32 32 32 31 31 31 30 30 31 31 31 31 32 32 33 33 33 34 34 35 36 36 38 40 42 44 45 46 47 48 48 48 49 49 49 49 49 49 49 50 51 52 54 55 56 57 58 59 59 60
51 51 51 51 51 51 52 52 52 51 51 52 53 54 54 53 52 50 49 48 47 46 46 46 45 44 42 41 39 38 36 35 34 33 33 33 33 32 32 31 30 30 29 29 29 29 29 29 30 30 31 32 32 33 33 34 35 37 39 41 43 44 45 47 48 49 49 50 50 49 49 49 49 49 49 49 50 50 51 52 53 54 55 56 57 58
49 50 50 51 51 50 50 51 52 52 52 53 53 53 53 53 52 51 49 47 46 45 45 45 45 43 41 38 37 36 35 34 33 33 33 33 33 32 31 31 30 29 29 28 28 28 28 28 28 29 30 30 31 32 33 33 34 36 37 39 40 42 44 45 46 48 49 49 49 49 49 49 48 48 48 48 48 48 48 49 50 50 51 51 52 52
50 50 50 50 50 50 50 51 52 53 52 52 51 50 50 49 50 51 51 49 47 45 44 43 42 41 40 38 36 36 36 36 35 34 33 32 32 31 31 30 30 29 29 28 28 28 27 27 27 28 28 29 30 30 31 32 33 34 35 36 38 39 41 42 43 45 46 47 47 48 48 48 48 48 47 47 46 46 46 46 46 46 46 46 46 47
49 49 49 49 49 50 51 52 52 52 51 51 51 50 48 47 47 48 49 49 48 46 44 42 39 38 38 38 38 38 38 37 36 35 33 32 32 32 32 32 31 30 30 29 28 28 27 27 27 27 27 27 28 28 29 30 31 32 32 34 35 36 37 38 40 41 43 44 45 45 46 47 47 47 47 46 46 45 44 44 43 42 42 41 41 41
47 47 48 49 50 51 52 52 52 51 50 49 49 49 48 46 45 46 47 47 46 45 43 41 38 37 37 38 40 40 40 39 37 36 35 34 34 34 35 35 34 33 32 31 30 29 28 27 27 26 26 26 26 26 27 27 28 29 30 31 32 33 34 36 37 38 40 41 42 43 44 45 45 46 46 46 45 44 43 42 40 38 38 37 37 37
45 47 49 51 51 51 51 51 51 50 49 48 47 47 46 46 45 45 45 44 43 42 41 40 39 37 37 38 40 41 41 40 39 37 36 36 36 37 38 38 37 35 35 34 32 30 29 28 27 26 25 25 25 25 25 26 27 28 29 30 31 32 33 34 35 36 37 38 40 41 42 43 44 44 45 45 44 43 41 39 37 36 36 36 36 37
46 48 50 51 51 51 50 49 49 48 47 45 44 44 44 44 44 43 43 42 41 41 40 40 40 39 38 39 40 41 42 42 41 40 39 37 37 38 40 40 39 37 36 35 33 31 29 28 27 26 25 24 24 25 25 26 27 27 28 29 30 31 32 33 34 35 36 37 38 39 40 41 42 43 43 43 43 41 40 39 38 38 39 39 40 40
47 49 50 51 50 49 47 47 46 46 44 43 42 42 42 42 42 41 41 41 41 41 41 42 42 40 38 37 38 40 42 43 43 42 41 40 39 39 40 41 40 38 36 35 33 31 29 27 26 26 25 25 24 24 25 25 26 27 28 29 30 31 32 32 33 34 34 35 36 37 38 39 40 41 42 42 42 41 41 41 41 42 43 44 44 44
48 48 49 49 48 47 45 44 43 42 41 41 40 40 40 40 40 40 40 41 41 42 43 43 44 43 41 38 37 38 41 43 44 43 43 42 40 39 39 40 40 38 36 33 32 30 29 28 27 26 25 25 24 24 25 25 26 26 27 28 29 30 31 32 33 33 34 34 35 36 37 38 39 40 41 42 43 43 44 44 45 46 47 47 46 46
47 47 47 47 46 44 42 41 40 39 39 39 39 39 39 38 39 39 40 41 42 43 43 43 44 44 44 42 39 38 40 42 44 44 44 43 41 39 39 39 39 37 35 33 31 30 29 28 27 26 25 25 24 24 24 24 24 25 26 27 28 29 30 31 32 32 33 33 34 35 36 37 38 39 40 42 43 44 46 47 48 49 49 49 48 47
46 45 44 44 43 41 40 38 37 37 37 37 38 38 38 38 38 39 40 41 41 42 43 43 43 43 43 43 41 40 40 42 43 44 44 43 41 39 38 38 38 37 35 33 32 31 30 29 27 26 25 24 23 23 22 22 22 23 24 25 26 27 28 29 30 31 32 32 33 34 35 36 36 37 39 40 42 44 46 47 49 50 50 50 49 48
45 43 41 40 39 38 37 36 35 35 35 36 37 37 38 38 39 39 40 40 41 41 42 43 43 43 43 43 42 41 41 41 43 44 44 43 41 39 39 39 38 37 35 33 32 31 30 29 27 25 24 23 22 21 20 20 21 21 22 23 24 25 26 28 29 30 30 31 32 33 34 35 35 36 37 39 40 42 44 46 48 50 50 50 50 49
42 40 37 36 36 36 36 35 34 33 34 34 36 37 38 38 39 39 39 40 41 41 42 43 43 43 43 43 42 41 40 41 42 43 43 43 41 39 39 39 39 38 36 34 33 31 30 29 27 25 23 22 20 20 19 19 19 20 20 21 23 24 26 27 28 30 30 31 32 32 33 34 35 36 37 38 39 41 42 44 46 48 49 50 50 50
38 37 34 33 33 34 34 34 33 33 33 34 35 37 37 38 39 39 40 40 41 42 42 43 43 43 43 43 42 41 40 40 41 42 43 43 41 40 39 39 39 38 37 35 33 32 30 29 27 25 23 21 20 19 19 18 19 19 20 21 23 24 26 27 29 30 31 32 32 33 33 34 34 35 36 37 38 39 41 42 44 46 47 48 49 49
35 34 33 32 31 32 32 32 32 32 32 33 34 36 37 38 39 40 40 41 41 42 43 43 43 43 42 42 41 40 39 39 40 41 42 43 42 41 39 40 40 39 37 35 34 33 31 29 27 25 23 21 19 19 18 18 19 19 20 22 23 25 26 28 29 30 31 32 33 33 34 34 34 34 35 36 37 38 39 40 42 43 45 46 47 48
32 32 31 30 30 30 31 31 31 31 32 33 34 35 36 37 38 39 40 41 41 42 43 43 43 43 42 41 40 39 38 37 38 40 42 43 43 42 40 41 41 40 38 36 35 34 32 29 26 24 22 20 19 18 18 18 19 20 21 22 24 26 27 28 29 31 32 33 33 34 34 34 34 34 34 35 35 36 37 38 39 41 42 44 45 47
30 30 29 29 29 29 29 30 30 31 31 32 33 35 36 37 38 39 39 40 40 41 42 42 43 42 41 40 39 37 36 36 37 39 41 43 43 42 41 41 42 41 39 37 35 34 32 29 26 24 22 20 19 18 18 18 19 20 21 23 24 26 27 28 29 30 31 32 33 34 34 34 34 34 34 34 34 34 35 35 36 37 39 40 42 44
28 27 27 27 27 27 28 28 29 30 31 32 33 34 35 36 37 38 38 38 39 40 41 42 42 42 41 40 38 36 35 35 36 38 40 42 43 43 42 42 42 41 40 38 36 35 32 29 26 24 22 20 18 17 17 17 19 20 22 23 24 26 27 28 29 30 31 31 32 33 33 33 33 33 33 33 32 32 32 33 33 34 35 36 38 40
26 25 25 26 26 27 27 28 29 29 30 31 32 33 34 35 36 37 37 38 38 39 40 41 41 41 40 39 37 36 35 35 36 38 40 42 43 44 43 42 42 41 41 39 37 35 32 30 27 24 22 20 18 17 17 18 19 20 22 23 24 25 26 27 28 29 30 30 30 30 30 31 31 31 31 31 31 31 31 31 31 32 32 33 35 36
25 25 25 25 26 26 27 28 28 29 29 30 30 31 33 34 35 36 37 37 38 38 39 39 40 40 39 38 37 35 34 35 36 38 40 42 43 44 43 42 41 41 41 40 37 34 31 29 27 25 23 21 20 19 18 19 19 21 22 22 23 24 24 25 26 26 27 27 27 27 28 28 29 29 30 30 30 30 30 30 30 30 30 31 32 33
24 24 24 25 26 26 27 27 28 28 29 29 30 31 32 33 34 35 36 36 36 36 37 37 38 38 38 38 37 35 34 34 36 38 40 42 43 43 43 42 41 40 40 40 37 32 29 28 28 26 25 23 22 21 20 20 20 20 21 21 21 21 21 22 22 23 23 23 24 24 25 25 26 27 27 28 28 28 28 28 28 29 29 30 30 31
24 24 24 25 25 26 27 27 28 28 29 30 30 31 32 32 33 33 34 34 35 35 36 36 37 37 37 38 37 36 35 34 35 37 40 41 43 43 42 41 40 39 40 40 38 34 29 26 26 26 26 24 22 21 20 20 20 20 20 19 19 19 19 20 20 20 21 21 21 22 22 23 24 25 25 26 26 26 26 26 26 27 28 28 29 29
25 25 25 26 26 27 27 28 29 30 30 30 31 31 31 31 31 31 32 32 33 34 35 35 35 36 36 37 37 37 36 35 35 37 39 41 42 42 41 41 40 39 39 39 39 37 32 26 24 24 23 22 21 19 19 20 20 20 20 20 19 19 19 20 20 20 20 20 21 21 22 23 23 24 25 25 25 25 25 24 25 25 26 27 27 27
26 26 27 27 28 28 29 30 31 31 31 31 30 30 29 29 30 30 30 31 32 32 33 34 34 34 34 34 35 36 36 35 36 37 39 40 41 41 41 40 40 39 39 38 37 37 35 30 25 23 21 20 19 18 19 19 20 21 21 21 20 20 21 21 22 22 22 22 22 22 22 23 24 24 25 25 25 25 25 25 24 25 26 26 26 26
27 27 28 29 29 30 31 31 32 31 31 30 29 28 28 28 28 29 29 29 30 31 32 33 33 34 33 33 33 33 34 34 35 37 38 40 40 40 40 40 40 39 38 37 35 35 34 31 27 23 20 19 18 18 19 19 20 21 21 22 22 21 22 22 23 23 23 23 23 23 23 23 24 24 25 25 26 26 26 25 25 25 26 26 26 26
28 28 29 30 31 32 32 32 31 30 29 28 27 27 27 27 27 27 28 28 28 29 30 31 32 32 33 33 33 32 32 33 34 36 37 38 39 39 39 39 39 39 38 37 35 33 30 28 26 23 21 18 17 18 19 19 20 20 21 22 22 22 22 22 22 23 23 23 23 22 22 22 22 23 24 25 25 25 25 25 26 26 26 27 27 26
29 30 31 32 33 33 33 32 30 29 27 26 26 26 26 26 26 26 26 27 27 28 28 29 30 30 31 32 32 32 32 33 34 35 36 36 37 38 38 37 37 37 37 36 34 31 27 24 22 22 21 19 17 17 18 19 20 21 21 21 21 21 21 21 21 22 21 21 21 20 20 20 20 21 21 22 23 24 25 25 26 26 27 28 28 28
30 31 32 33 34 34 33 31 29 27 26 25 24 24 25 25 25 25 25 26 26 27 27 28 28 27 28 28 30 31 32 33 33 34 34 35 35 36 36 36 35 35 35 33 31 28 24 21 19 19 20 20 19 18 17 18 19 20 21 21 21 21 20 21 21 21 21 20 20 19 18 18 18 18 18 19 20 22 23 24 25 26 27 28 28 29
31 32 33 34 34 33 32 30 28 26 24 23 23 23 24 24 24 24 24 25 25 26 27 27 26 26 25 25 26 28 30 32 33 33 33 33 33 34 34 34 33 32 31 30 27 24 21 19 18 18 18 20 21 21 20 19 19 20 22 23 23 22 22 22 22 22 22 22 21 20 19 19 19 18 18 19 19 20 21 21 22 22 23 25 26 26
32 33 33 33 33 32 30 28 25 24 23 22 23 23 23 23 23 23 24 24 25 26 27 27 26 25 23 23 24 26 28 30 31 32 31 31 32 32 33 32 31 29 27 25 23 20 19 18 18 18 18 19 21 23 24 23 22 22 23 24 25 26 26 25 25 25 25 25 24 23 23 22 22 22 22 22 22 23 24 23 22 21 20 21 21 22
33 33 33 32 31 30 28 25 23 22 21 21 22 22 22 22 22 23 23 24 25 26 27 27 26 25 23 23 24 25 27 29 30 30 30 30 30 31 31 30 29 26 23 20 18 18 18 18 19 20 20 21 22 23 24 25 25 25 25 26 27 28 29 28 28 28 28 27 27 27 26 25 25 25 25 25 25 26 27 28 27 24 22 20 18 18
33 32 32 31 29 27 24 22 21 20 20 20 21 21 22 22 23 23 23 24 26 27 27 27 26 24 23 23 23 24 26 27 28 28 28 29 29 29 29 28 26 23 19 16 16 16 17 18 19 20 21 22 23 23 24 26 27 27 28 29 29 30 30 30 29 29 29 29 29 29 28 28 27 27 26 26 26 26 27 28 29 28 26 23 19 16
32 31 30 28 25 23 21 19 19 19 19 20 20 21 22 23 24 24 24 25 26 27 28 27 26 24 22 22 22 23 24 25 26 27 27 27 27 27 27 26 24 20 17 15 14 15 17 18 19 20 21 22 22 23 25 26 27 29 30 31 31 31 30 30 30 30 31 31 30 30 30 29 28 27 27 26 27 27 27 28 28 28 27 26 22 17
30 29 27 24 22 20 18 17 17 18 18 19 20 21 23 24 25 26 26 26 27 28 29 29 27 25 23 21 20 21 23 24 25 25 25 26 26 26 25 24 22 19 16 14 14 15 16 18 19 20 21 21 22 23 24 26 27 28 29 30 31 31 30 30 30 31 31 31 31 31 30 30 29 28 27 26 27 27 27 27 26 25 24 24 23 19
28 26 24 21 19 18 17 17 17 17 18 19 20 22 24 25 26 27 27 27 28 29 29 29 28 26 24 22 20 20 21 22 23 24 24 24 24 24 23 22 20 18 16 14 14 14 15 16 18 19 20 21 22 24 25 26 27 28 29 30 31 33 34 33 32 32 31 31 31 31 31 30 29 28 27 27 27 27 28 27 25 21 18 18 19 18
25 23 20 19 18 17 17 17 17 18 19 20 22 23 25 26 27 28 28 28 27 28 28 28 28 26 24 22 21 20 20 21 21 21 21 22 22 22 21 20 19 17 16 15 15 15 15 16 17 18 19 21 22 24 25 26 27 28 28 29 31 34 35 36 35 34 33 32 31 31 30 30 30 29 28 27 27 27 27 27 23 18 14 13 14 15
23 20 18 16 16 16 16 17 18 19 20 22 23 25 26 27 28 29 29 28 27 27 27 28 27 26 25 23 22 21 20 20 20 20 19 19 19 19 19 19 18 16 16 16 16 16 16 17 17 18 19 20 22 24 25 26 27 28 29 30 31 33 35 36 36 36 36 34 33 31 30 29 29 29 28 28 27 26 26 24 20 14 11 12 13 13
21 18 16 15 15 16 18 19 20 21 22 23 24 25 26 28 29 30 30 29 28 27 26 26 27 27 26 24 23 21 20 20 19 19 18 18 17 17 17 17 17 17 17 17 17 17 18 18 19 19 20 20 21 23 24 26 27 28 29 30 32 34 35 37 38 38 37 36 35 33 30 29 28 28 28 28 26 25 24 23 18 12 9 10 11 11
20 18 17 16 16 17 19 20 22 23 24 25 25 24 25 27 29 31 31 30 29 27 26 26 26 26 26 25 24 23 22 21 21 20 19 17 16 15 15 15 16 17 17 18 18 18 19 19 20 21 21 21 22 22 23 25 26 28 30 31 32 34 36 38 39 39 39 38 37 35 32 29 28 28 27 27 26 25 23 21 17 13 9 8 8 8
19 18 18 17 18 19 20 21 23 25 27 27 26 24 23 25 28 30 31 31 29 27 26 26 26 26 25 24 23 23 23 23 22 21 20 18 16 14 13 13 14 15 16 17 18 19 19 20 21 22 22 22 23 23 23 24 26 28 29 31 32 34 36 38 39 40 40 39 38 36 33 31 30 29 28 27 26 24 21 18 16 15 12 10 8 6
19 19 19 20 20 20 21 23 24 27 28 29 28 26 23 24 26 29 31 31 29 27 26 26 26 27 26 24 23 22 22 22 22 22 20 18 16 15 13 12 12 13 14 15 16 17 18 19 21 22 23 24 24 24 24 25 26 27 29 30 32 34 35 37 38 39 40 40 38 36 32 30 28 27 28 28 27 24 19 16 16 16 16 14 10 7
19 19 21 21 22 23 23 25 26 28 29 30 30 28 25 24 25 28 30 31 29 27 25 25 26 26 26 25 23 22 22 22 22 21 20 18 17 15 14 13 12 12 13 13 14 14 15 15 17 20 23 24 25 25 26 26 27 27 28 30 31 33 34 36 38 39 39 39 38 35 31 27 25 24 26 28 27 24 19 15 15 17 17 16 12 8
19 20 21 22 24 24 25 26 27 29 30 31 31 29 27 26 26 28 30 30 30 27 24 23 24 25 27 26 24 23 22 22 23 22 21 19 17 16 15 14 13 13 13 14 14 14 14 14 14 17 20 23 25 26 26 27 27 28 28 29 31 32 34 36 37 38 38 38 38 35 31 27 24 24 25 27 27 25 20 16 15 17 17 15 12 8
Wind_Direction
309 308 308 308 307 307 307 307 308 308 307 307 307 307 306 306 306 305 305 305 305 305 305 305 305 305 305 305 305 306 306 306 305 304 303 302 301 300 299 298 297 296 295 294 292 291 290 288 287 285 284 283 282 281 280 278 277 276 274 273 271 270 269 269 268 268 268 268 269 269 268 266 264 262 262 261 260 259 258 257 256 255 254 254 254 254
309 309 308 309 309 309 309 309 310 310 309 308 308 308 308 307 307 307 307 307 308 308 309 309 309 309 309 308 308 308 307 307 306 305 304 304 303 302 302 301 300 299 297 295 294 292 291 289 288 287 286 285 284 282 281 280 279 277 275 274 272 271 269 268 268 269 270 270 268 266 263 261 259 257 257 257 256 256 255 254 254 253 253 253 253 253
309 309 309 310 311 311 311 311 311 310 310 309 309 309 309 309 309 310 311 312 312 313 313 313 312 311 310 310 309 309 309 308 308 307 307 307 307 306 305 304 302 300 298 296 294 293 291 290 288 287 286 285 284 283 282 281 280 278 276 275 272 270 268 268 269 270 271 271 269 265 261 257 254 252 250 250 250 251 251 250 250 250 251 250 251 251
311 311 311 312 313 313 312 312 311 311 311 311 311 312 313 313 314 315 316 316 316 316 315 314 313 312 311 311 311 311 311 311 311 311 311 310 310 308 306 304 302 300 298 295 294 292 290 289 288 286 285 284 283 282 282 281 280 279 277 275 273 271 269 269 270 271 270 268 266 264 261 259 255 252 248 246 245 245 244 245 245 246 246 246 246 247
313 313 313 314 314 314 313 313 312 312 313 314 315 317 317 318 318 318 318 318 317 315 314 313 313 312 313 313 314 314 314 314 313 313 312 311 309 308 306 303 301 299 297 296 294 292 291 289 287 286 284 283 282 280 279 279 278 277 277 276 275 273 270 268 266 264 262 260 259 259 259 259 258 255 251 248 246 244 243 242 242 243 243 243 243 243
314 315 316 316 315 314 313 314 315 316 318 319 320 321 321 320 319 318 317 316 315 314 314 313 314 314 315 316 316 316 315 314 313 312 311 310 309 307 306 304 303 301 300 299 297 296 294 292 290 288 286 283 281 279 277 276 274 274 274 274 273 270 267 263 260 256 254 253 254 255 258 259 260 258 256 253 250 247 246 245 244 244 244 243 243 243
316 316 317 316 315 315 315 317 319 322 323 323 323 322 321 319 318 317 315 315 314 314 314 315 316 317 317 318 317 316 314 313 313 312 312 312 311 310 310 309 308 307 306 304 303 301 299 296 294 291 289 286 283 279 276 273 271 269 267 266 264 262 260 259 257 256 254 254 255 257 259 261 262 262 260 257 254 252 250 249 248 248 247 247 247 246
317 316 316 316 316 317 319 322 324 324 324 323 321 320 319 318 317 315 314 314 315 316 317 317 318 318 318 317 316 314 314 314 315 316 316 317 316 316 315 313 312 311 310 307 305 303 301 299 297 294 292 289 285 282 278 274 270 266 263 261 260 260 260 260 260 260 260 259 260 261 263 264 265 264 262 260 258 256 254 253 252 252 252 251 251 251
316 316 316 317 319 322 323 324 324 323 321 320 319 318 317 317 317 316 316 316 317 318 319 318 318 318 318 317 316 316 317 318 320 321 322 321 320 318 317 315 314 312 310 308 306 305 303 301 299 297 294 291 288 285 281 277 273 269 266 264 263 262 263 263 264 264 264 264 264 265 265 266 266 265 264 263 261 259 258 257 256 255 255 255 254 254
317 318 319 321 323 323 322 321 320 320 319 318 317 317 317 317 317 318 318 318 319 319 319 318 318 318 318 318 319 320 322 323 324 324 323 322 320 318 317 315 314 313 311 309 308 307 305 304 302 299 296 293 290 287 285 281 278 275 271 269 267 266 265 264 264 264 264 264 264 265 265 265 265 265 264 264 263 262 261 260 259 258 258 257 257 257
319 321 323 323 322 321 319 317 318 318 318 317 317 317 318 319 319 318 318 318 319 319 319 318 318 319 320 321 323 325 326 326 325 324 322 320 319 318 317 316 315 314 313 311 310 309 309 307 304 301 297 294 291 288 286 283 281 279 276 273 271 269 267 265 264 264 263 263 263 263 264 264 264 264 264 264 263 263 262 262 262 261 261 261 261 260
322 322 321 319 317 316 316 316 317 318 318 318 319 319 319 320 319 317 316 316 317 318 319 319 320 322 323 325 326 327 327 327 326 324 323 321 320 320 319 318 317 316 315 313 313 312 311 309 305 301 298 294 291 289 287 285 283 281 279 277 275 272 270 268 266 264 263 263 262 262 262 262 262 262 262 262 263 263 263 263 263 263 264 264 265 264
321 317 314 313 312 313 315 316 317 318 319 320 320 320 319 319 318 316 315 315 316 318 319 321 323 325 327 327 328 328 328 327 326 325 325 324 324 324 323 322 321 319 318 316 315 315 313 310 307 303 300 297 295 293 291 289 287 286 283 281 279 276 273 271 268 266 264 263 262 261 261 260 260 261 261 261 261 262 262 262 263 263 264 265 266 265
312 309 309 310 312 314 316 317 318 319 320 320 320 319 317 317 316 315 315 315 317 319 321 323 325 327 329 329 329 328 328 328 328 327 327 327 328 328 326 324 323 321 320 319 318 317 315 312 309 306 303 301 300 298 296 294 292 290 287 285 282 280 277 274 272 269 267 265 263 261 260 260 259 259 259 259 259 259 259 259 260 260 260 260 260 259
306 307 310 312 314 316 318 319 319 319 319 319 318 317 316 315 315 316 316 318 320 322 324 325 326 328 329 330 330 330 330 329 329 329 329 329 330 329 328 325 323 322 321 320 319 318 316 313 311 309 308 306 305 303 300 297 294 291 288 285 283 281 279 277 275 272 270 267 265 263 261 260 259 258 257 257 257 256 256 255 255 255 253 252 250 249
309 311 312 314 316 318 319 319 319 318 318 318 317 315 315 315 316 318 319 321 323 325 326 326 326 327 328 330 332 332 331 330 329 329 328 329 330 330 328 325 323 322 321 320 319 318 317 315 314 313 312 311 309 306 302 299 295 291 288 285 283 281 280 278 277 275 273 271 268 266 263 261 259 257 256 254 254 253 252 251 249 248 247 247 246 245
313 313 314 315 317 319 319 319 318 317 317 316 315 315 315 317 319 320 322 324 325 325 325 325 325 325 327 331 333 334 332 330 329 328 328 328 330 331 328 325 323 322 322 321 321 320 319 318 317 316 315 313 311 308 304 300 296 292 289 286 284 282 281 280 279 277 276 274 272 270 267 264 262 259 256 254 252 250 249 248 247 246 246 246 246 246
313 314 315 316 318 318 318 318 318 317 316 316 316 316 317 319 321 323 324 324 324 324 324 324 324 325 327 329 333 335 333 330 328 327 327 327 329 330 328 325 323 323 323 324 324 323 322 321 320 319 318 316 313 310 306 302 298 295 291 289 286 284 282 281 280 278 277 276 274 272 270 268 265 262 259 256 254 251 250 249 248 248 249 248 248 248
314 316 317 317 317 317 317 317 318 317 317 318 318 319 321 322 323 324 323 323 323 322 322 323 324 325 326 328 331 334 333 330 327 326 326 326 328 329 329 326 325 324 325 327 327 326 324 323 322 321 319 317 314 311 307 303 300 297 294 291 289 286 284 282 280 279 277 276 275 273 271 269 267 265 263 260 258 255 253 252 251 251 251 250 250 249
314 317 318 318 317 317 317 317 318 319 320 320 321 322 323 323 323 323 322 322 322 322 322 323 323 324 325 327 330 333 332 330 327 325 324 325 327 329 329 328 327 327 327 329 329 327 325 324 323 322 321 319 316 313 309 305 302 299 296 293 290 288 285 282 280 279 277 275 274 272 271 270 268 266 264 262 260 258 256 255 254 253 253 252 251 251
315 317 319 319 317 317 317 318 320 321 323 323 323 323 322 322 322 322 322 322 322 322 323 323 323 324 325 326 329 331 331 328 326 324 324 324 326 329 330 329 328 328 328 329 329 328 326 325 325 325 324 322 320 316 311 307 304 300 297 294 290 287 284 282 280 278 277 275 274 273 272 270 269 268 266 264 262 260 258 257 256 255 255 254 253 252
315 317 319 319 318 318 319 321 323 324 325 324 323 321 321 321 321 322 322 323 323 322 322 322 322 323 324 325 327 329 329 327 325 324 323 323 326 329 331 330 328 328 329 330 330 329 328 328 328 328 328 326 322 318 313 309 304 300 296 292 288 284 282 280 279 278 278 277 277 276 275 275 274 272 271 269 267 265 263 261 259 258 257 256 255 253
317 318 319 320 320 321 322 324 325 325 324 323 322 321 321 321 321 321 322 322 322 321 321 320 321 322 323 324 325 326 327 326 325 324 324 324 326 329 331 331 329 328 329 331 331 330 330 330 331 331 330 328 324 319 314 309 304 299 294 289 285 282 281 280 280 280 281 281 282 282 281 281 280 278 277 275 273 270 268 266 264 263 261 259 257 255
319 320 320 322 323 323 324 324 324 324 323 323 322 322 322 321 321 321 321 321 320 319 319 319 319 320 322 322 323 324 326 327 327 326 325 325 326 329 331 331 330 329 330 332 332 331 331 332 333 334 332 329 324 319 314 309 303 297 291 287 283 282 281 282 282 283 284 285 285 285 285 285 284 283 282 280 278 276 274 272 270 267 266 263 261 259
321 322 323 324 324 324 324 324 324 324 324 323 323 322 321 321 320 319 319 319 318 317 317 317 317 318 320 321 322 324 326 328 328 328 326 325 326 329 332 332 331 330 331 333 333 332 332 334 335 336 334 330 325 319 313 307 301 295 289 286 284 283 283 283 284 284 284 285 285 286 286 287 287 287 286 285 284 282 280 277 275 272 270 268 266 263
323 324 324 324 324 324 324 324 324 324 325 324 323 321 320 319 318 317 317 317 316 316 316 316 317 318 320 321 322 324 327 330 330 329 327 326 327 329 332 333 331 331 332 333 334 334 334 335 337 338 335 332 327 320 312 304 298 292 289 287 287 287 287 286 286 285 286 286 287 288 289 290 290 291 290 290 289 287 285 282 280 277 274 272 270 267
326 326 326 325 325 325 325 325 325 325 324 323 321 319 317 316 315 315 315 315 315 315 315 316 317 319 320 322 324 326 330 332 332 330 328 327 328 329 332 332 332 332 332 333 334 335 335 337 339 340 338 335 330 323 315 307 300 296 295 294 295 295 295 294 294 293 293 293 293 294 294 295 295 294 294 293 292 290 288 286 283 281 278 275 272 270
329 328 327 327 326 326 326 326 325 324 323 321 319 317 315 314 314 314 315 315 315 316 317 318 319 321 322 324 325 328 331 334 333 331 328 328 328 329 331 332 332 333 333 333 334 335 337 340 342 342 341 340 336 331 323 316 309 306 304 304 304 305 304 303 302 301 301 301 301 301 301 300 299 298 297 295 294 292 290 288 286 283 280 277 274 271
330 329 328 328 328 327 326 325 324 322 320 318 317 315 315 314 314 314 315 316 318 319 320 321 322 323 324 325 326 328 332 335 334 331 329 328 328 329 331 331 333 334 335 334 334 336 340 344 346 346 345 344 342 338 332 324 319 316 315 315 315 314 312 310 308 307 306 306 305 305 304 303 302 301 299 298 296 295 293 291 288 285 281 277 274 272
331 330 330 329 328 326 325 323 322 320 319 318 317 316 316 315 315 316 318 319 321 323 323 324 324 325 326 326 327 329 332 335 334 331 329 327 328 329 331 332 334 336 337 336 335 336 341 348 351 350 348 347 346 342 336 331 328 326 326 326 325 323 319 316 313 311 310 308 307 306 304 304 302 301 300 299 298 296 294 292 290 287 283 280 276 273
333 332 331 329 328 326 324 323 322 321 320 320 319 319 318 319 319 321 322 324 325 326 325 325 326 326 326 327 327 328 331 334 333 330 329 328 328 329 331 332 334 336 338 337 336 336 339 348 356 358 355 353 350 346 341 337 336 335 335 334 332 328 323 319 316 313 311 308 307 305 304 303 302 301 300 299 297 295 293 291 288 286 284 282 279 276
333 332 330 329 327 325 324 323 323 323 323 322 322 322 322 323 324 325 327 328 328 328 327 326 326 326 326 326 326 327 330 332 332 331 329 329 329 330 332 333 334 336 337 337 336 335 336 343 354 3 4 2 357 351 346 343 342 340 338 336 334 330 326 322 319 316 314 312 310 308 306 304 302 301 299 298 296 293 290 288 285 283 282 280 279 278
333 331 329 327 326 325 324 324 324 325 325 325 325 325 325 326 327 329 330 330 330 329 328 327 327 326 326 325 325 326 329 331 332 331 330 329 329 330 332 333 335 336 336 336 336 335 336 342 351 1 8 8 3 356 351 348 346 343 341 339 337 334 331 327 323 321 319 317 315 313 310 307 304 302 300 298 296 293 290 286 283 281 279 279 279 279
331 329 327 326 325 325 325 325 326 327 327 327 327 327 328 329 330 331 332 332 331 330 329 328 328 327 326 326 325 326 329 331 332 331 331 330 329 330 332 334 335 335 335 335 335 337 340 346 354 2 8 10 7 1 355 351 349 348 346 344 342 340 336 331 328 326 324 323 321 318 315 311 308 306 304 301 299 295 291 287 283 280 278 277 277 277
329 327 326 325 325 325 325 326 327 328 329 329 330 330 331 332 333 334 334 334 333 332 331 330 329 328 327 326 326 327 329 331 332 332 331 330 329 330 332 333 334 334 334 334 335 338 344 354 3 7 8 9 8 4 360 356 355 354 353 352 349 345 341 337 334 333 332 331 328 325 321 317 313 311 308 306 302 298 294 290 285 282 278 276 275 274
327 326 325 325 325 325 326 328 329 330 331 332 332 333 334 335 336 336 336 336 335 334 333 331 330 328 327 326 326 327 328 330 331 331 331 330 329 330 331 332 334 334 333 334 336 340 348 0 11 14 11 8 7 7 6 4 3 2 1 359 356 351 347 344 343 342 342 341 338 335 331 327 324 321 317 313 307 302 297 293 289 285 281 278 276 274
326 326 326 325 326 326 328 329 330 331 333 334 335 336 337 337 338 338 339 339 338 336 335 333 331 330 329 327 327 327 328 330 331 331 331 330 330 330 330 332 333 334 334 335 338 343 353 3 12 16 14 11 9 8 9 9 8 8 7 6 2 358 354 351 350 349 348 347 346 344 341 339 336 334 331 327 322 317 311 306 300 294 288 283 279 276
326 326 326 326 327 328 329 330 332 334 336 338 339 339 339 339 340 341 341 341 340 338 337 335 334 333 332 330 329 329 330 330 331 331 331 330 330 330 330 331 334 336 337 338 341 347 355 1 6 10 11 11 11 10 8 7 7 8 8 9 6 2 358 355 353 352 350 349 348 347 345 343 341 339 338 336 334 333 330 326 320 311 302 292 285 280
327 327 327 328 328 329 331 332 335 337 340 342 341 341 340 340 341 342 343 343 342 341 339 338 338 337 336 335 333 332 332 332 331 331 331 331 331 331 331 332 335 339 342 345 348 352 356 359 1 2 2 4 7 9 8 6 5 4 5 6 7 4 0 357 354 353 352 351 350 349 348 345 343 342 341 341 341 340 338 335 330 324 316 306 296 286
328 329 329 330 331 333 334 336 339 341 343 343 342 341 340 341 341 342 343 343 343 342 341 341 341 341 340 339 336 334 333 333 332 332 332 332 332 332 333 334 338 343 348 353 355 356 357 359 360 360 359 358 0 4 7 6 4 2 1 1 3 3 2 359 356 355 354 354 353 352 351 349 348 346 345 344 343 341 339 336 333 329 323 317 308 296
330 330 331 333 335 337 339 341 344 346 346 345 344 342 342 341 341 342 342 343 343 343 342 342 342 343 343 341 338 336 335 334 334 334 334 334 334 334 335 337 341 346 352 357 359 358 358 357 357 357 356 356 357 0 4 5 4 1 359 358 359 1 2 1 0 359 358 357 356 355 354 352 351 350 348 346 343 340 337 334 333 331 327 323 317 308
332 334 335 339 342 344 345 347 348 348 347 346 345 344 343 342 341 341 341 342 343 344 343 343 343 343 343 341 339 337 337 337 337 337 337 336 336 336 337 341 344 349 353 357 359 359 357 355 354 354 354 354 356 358 1 3 2 1 359 358 358 359 2 4 4 3 1 0 360 358 356 354 352 351 350 347 342 338 334 332 332 332 331 328 324 318
336 338 342 346 349 350 350 350 350 350 349 348 346 344 342 341 341 340 341 341 343 344 344 343 343 342 341 339 339 339 341 341 341 340 340 339 338 338 340 343 346 349 351 352 354 355 356 353 352 352 352 353 355 356 359 360 0 0 360 359 359 360 1 3 5 5 4 4 3 1 359 356 354 353 351 348 343 337 332 330 330 332 333 331 327 324
340 345 350 354 355 354 353 352 352 351 350 348 346 345 344 343 342 342 342 342 342 343 343 343 342 340 339 338 339 340 343 344 344 343 343 341 340 340 341 344 346 348 348 348 348 349 350 349 349 349 350 351 353 355 356 357 358 359 360 1 2 2 2 2 3 4 6 7 7 5 2 360 357 356 354 351 345 338 333 330 331 333 334 328 323 321
345 350 356 358 358 357 355 353 351 350 349 347 346 346 347 348 347 347 346 344 343 343 344 343 342 341 340 338 338 340 342 344 345 346 346 345 344 343 343 344 345 345 346 345 345 344 344 345 345 345 346 348 351 353 354 354 355 357 360 2 3 4 3 3 3 3 5 7 8 8 6 4 1 360 358 355 349 342 335 332 332 335 337 327 321 320
347 351 355 357 357 356 354 351 349 347 346 345 346 349 351 352 352 351 350 347 345 344 345 344 344 344 342 339 338 339 341 344 347 349 350 349 348 346 345 344 344 344 344 344 344 343 342 342 342 343 344 346 349 351 352 353 354 357 360 3 4 5 5 4 3 3 4 6 8 9 9 8 6 3 2 359 355 347 339 334 333 334 338 335 334 334
347 349 351 352 354 354 353 350 347 344 344 344 346 349 353 354 354 353 351 349 347 346 346 346 347 346 344 341 339 339 341 344 348 351 352 352 351 349 348 346 345 343 343 344 344 345 344 344 343 344 345 346 347 349 351 353 355 357 360 2 4 5 5 4 3 3 4 6 7 9 10 9 8 6 5 3 360 353 345 340 338 338 341 345 350 351
347 347 347 349 351 352 351 348 345 345 345 345 346 350 354 355 355 353 351 350 348 347 348 349 351 349 346 343 341 341 342 345 348 350 351 351 351 352 351 349 347 345 344 344 345 346 347 346 345 345 345 346 347 349 351 354 356 359 0 2 4 5 5 4 3 4 5 6 8 9 9 9 7 6 5 5 4 360 352 348 351 357 360 2 3 2
347 346 346 348 350 351 349 347 346 346 347 347 348 350 354 356 356 353 351 350 348 348 349 352 353 352 349 345 343 342 343 345 347 348 349 350 350 351 352 352 350 347 345 345 346 347 348 347 345 343 343 344 346 348 351 354 357 359 1 2 3 4 4 4 4 4 5 7 8 9 10 9 7 4 4 7 8 5 359 359 6 13 15 15 16 17
348 347 347 349 351 351 350 349 348 348 348 348 348 349 352 356 357 356 353 351 349 348 349 352 354 354 352 349 346 344 344 345 346 347 348 348 348 348 349 350 349 348 347 346 347 349 350 347 344 341 340 342 344 348 351 354 356 359 0 1 2 3 4 4 5 6 6 7 8 10 11 11 8 6 7 10 12 11 8 9 15 20 20 21 25 32
349 349 350 352 352 352 351 349 349 348 348 348 348 348 349 352 355 356 354 351 348 346 346 349 353 356 356 353 349 346 345 344 345 345 346 346 345 345 346 346 345 345 344 346 347 349 349 347 344 341 341 342 344 347 350 352 354 357 359 1 2 3 4 4 6 7 8 8 9 10 11 11 11 10 12 17 18 18 17 17 20 22 21 23 29 43
Height
2899 2897 2894 2892 2890 2887 2884 2881 2879 2878 2875 2871 2869 2867 2865 2864 2862 2860 2858 2857 2855 2853 2850 2848 2846 2844 2843 2841 2840 2839 2838 2836 2835 2833 2832 2831 2829 2828 2826 2825 2823 2822 2820 2819 2818 2817 2815 2814 2813 2812 2811 2810 2809 2809 2808 2807 2807 2806 2806 2805 2805 2805 2804 2804 2804 2804 2805 2806 2808 2809 2810 2809 2809 2809 2809 2810 2809 2809 2811 2812 2813 2813 2815 2815 2816 2817
2895 2892 2889 2887 2885 2883 2879 2877 2874 2873 2870 2868 2865 2863 2861 2860 2858 2856 2854 2852 2850 2848 2846 2843 2842 2840 2838 2837 2836 2835 2834 2833 2831 2829 2828 2826 2825 2823 2822 2820 2819 2817 2816 2815 2813 2812 2811 2810 2809 2808 2807 2806 2805 2804 2804 2803 2803 2802 2802 2802 2801 2801 2801 2800 2800 2800 2801 2802 2803 2804 2805 2805 2805 2804 2804 2804 2805 2805 2806 2807 2808 2809 2809 2810 2811 2812
2891 2888 2885 2882 2880 2878 2875 2873 2871 2868 2866 2864 2862 2860 2858 2856 2853 2851 2849 2847 2845 2843 2842 2840 2838 2836 2834 2833 2833 2831 2830 2828 2827 2825 2823 2822 2820 2819 2817 2816 2814 2813 2812 2810 2809 2808 2807 2806 2804 2803 2802 2802 2801 2800 2799 2799 2798 2798 2798 2798 2797 2797 2797 2797 2797 2797 2798 2798 2798 2798 2798 2799 2798 2798 2798 2798 2799 2800 2801 2802 2803 2803 2804 2805 2806 2806
2887 2884 2881 2878 2875 2873 2871 2869 2867 2865 2863 2860 2858 2856 2854 2851 2849 2847 2845 2843 2841 2839 2838 2836 2834 2833 2831 2829 2828 2827 2826 2824 2822 2821 2819 2818 2817 2815 2814 2812 2811 2809 2808 2807 2805 2804 2803 2802 2800 2799 2798 2798 2797 2796 2795 2795 2794 2794 2794 2793 2793 2793 2793 2793 2794 2794 2794 2795 2794 2793 2792 2792 2792 2793 2793 2793 2793 2793 2794 2795 2796 2797 2798 2798 2799 2800
2882 2880 2877 2875 2872 2869 2867 2865 2863 2861 2859 2857 2854 2852 2849 2847 2845 2843 2841 2839 2838 2836 2834 2833 2831 2829 2827 2826 2824 2823 2822 2820 2818 2817 2816 2815 2813 2812 2811 2809 2808 2806 2804 2803 2802 2800 2799 2798 2797 2796 2794 2794 2793 2792 2791 2791 2790 2790 2790 2790 2790 2790 2791 2791 2791 2790 2790 2790 2789 2788 2786 2786 2787 2787 2788 2788 2788 2788 2788 2789 2789 2790 2791 2792 2793 2794
2878 2876 2874 2871 2868 2866 2863 2862 2860 2858 2855 2852 2849 2848 2846 2844 2842 2840 2838 2836 2834 2833 2831 2829 2828 2826 2824 2823 2821 2819 2818 2817 2816 2814 2813 2812 2811 2809 2808 2806 2804 2803 2801 2799 2798 2797 2795 2794 2793 2792 2791 2790 2789 2788 2788 2787 2787 2787 2787 2787 2787 2787 2786 2786 2785 2784 2783 2783 2782 2781 2781 2781 2781 2782 2783 2783 2784 2784 2784 2784 2784 2785 2786 2786 2787 2788
2874 2872 2870 2868 2865 2863 2860 2858 2856 2854 2851 2848 2846 2844 2843 2841 2839 2838 2835 2833 2832 2829 2827 2826 2824 2823 2821 2820 2818 2817 2815 2814 2813 2812 2810 2809 2807 2806 2804 2802 2801 2799 2798 2796 2794 2793 2792 2790 2789 2788 2787 2786 2785 2784 2783 2783 2783 2783 2783 2783 2782 2780 2779 2778 2778 2777 2777 2777 2776 2776 2776 2776 2777 2778 2778 2779 2780 2780 2780 2781 2781 2781 2782 2783 2783 2784
2871 2869 2867 2865 2862 2859 2856 2854 2853 2851 2849 2847 2844 2841 2839 2838 2837 2835 2833 2831 2829 2827 2824 2822 2821 2820 2819 2817 2815 2814 2812 2811 2809 2808 2807 2805 2803 2802 2800 2799 2798 2796 2795 2793 2792 2790 2789 2787 2786 2784 2783 2782 2781 2780 2779 2778 2778 2778 2777 2776 2775 2774 2773 2773 2773 2773 2773 2772 2772 2772 2772 2772 2773 2773 2773 2774 2775 2775 2776 2777 2777 2778 2778 2779 2780 2781
2869 2866 2863 2861 2859 2856 2853 2851 2850 2849 2848 2845 2843 2840 2837 2834 2832 2830 2829 2828 2826 2824 2822 2819 2818 2817 2816 2815 2813 2811 2809 2808 2806 2804 2803 2801 2800 2798 2797 2796 2795 2793 2792 2791 2789 2788 2786 2784 2783 2781 2780 2778 2777 2776 2775 2774 2773 2773 2772 2771 2771 2770 2770 2769 2769 2768 2768 2768 2768 2768 2768 2768 2768 2768 2769 2769 2770 2770 2771 2772 2773 2773 2774 2775 2776 2777
2866 2863 2860 2857 2856 2854 2853 2850 2848 2847 2846 2843 2841 2838 2836 2832 2828 2825 2823 2823 2823 2822 2820 2818 2815 2813 2812 2811 2810 2808 2806 2805 2803 2802 2801 2799 2798 2796 2795 2793 2792 2790 2789 2788 2786 2785 2783 2782 2780 2778 2777 2775 2774 2773 2772 2770 2769 2769 2768 2768 2767 2767 2766 2766 2765 2765 2764 2764 2764 2764 2764 2764 2764 2764 2764 2765 2765 2766 2766 2767 2768 2769 2769 2771 2772 2773
2862 2859 2857 2855 2854 2853 2851 2849 2847 2845 2843 2841 2838 2836 2834 2831 2828 2823 2820 2818 2818 2818 2817 2816 2814 2811 2809 2807 2806 2805 2803 2802 2800 2800 2798 2797 2796 2794 2792 2790 2789 2788 2786 2784 2783 2782 2780 2779 2777 2776 2774 2773 2771 2770 2768 2767 2766 2765 2764 2763 2763 2763 2762 2761 2761 2761 2760 2760 2760 2760 2760 2760 2760 2760 2760 2760 2761 2761 2762 2763 2763 2764 2765 2766 2767 2768
2860 2858 2857 2855 2853 2851 2849 2847 2845 2843 2841 2838 2835 2832 2830 2829 2827 2823 2820 2817 2815 2814 2813 2812 2811 2810 2807 2804 2803 2801 2800 2799 2798 2796 2795 2794 2792 2790 2788 2787 2785 2784 2782 2781 2780 2779 2778 2776 2774 2773 2771 2770 2768 2767 2765 2764 2763 2762 2761 2760 2759 2758 2758 2757 2757 2756 2756 2756 2756 2755 2755 2755 2755 2756 2756 2756 2756 2757 2758 2758 2759 2760 2761 2762 2763 2764
2859 2858 2856 2853 2851 2849 2847 2844 2842 2840 2838 2835 2833 2829 2827 2825 2824 2822 2819 2816 2814 2812 2811 2809 2808 2807 2805 2803 2801 2799 2797 2796 2794 2793 2792 2790 2788 2786 2784 2782 2781 2780 2778 2777 2776 2775 2774 2773 2771 2770 2768 2767 2765 2764 2763 2761 2760 2758 2757 2756 2755 2754 2753 2753 2752 2752 2751 2751 2751 2751 2751 2751 2751 2751 2751 2752 2752 2753 2753 2754 2756 2757 2758 2758 2759 2760
2859 2856 2853 2851 2849 2847 2845 2843 2839 2837 2834 2833 2831 2828 2825 2823 2821 2819 2817 2814 2812 2811 2808 2806 2804 2803 2803 2801 2799 2797 2794 2792 2791 2789 2788 2787 2785 2783 2781 2778 2777 2776 2774 2773 2772 2771 2770 2769 2768 2766 2765 2764 2762 2761 2759 2758 2756 2755 2754 2753 2751 2750 2749 2748 2748 2748 2747 2747 2747 2747 2747 2747 2747 2747 2747 2748 2748 2749 2750 2751 2752 2753 2754 2755 2756 2756
2856 2853 2851 2848 2846 2844 2843 2840 2837 2834 2832 2831 2829 2826 2823 2821 2819 2817 2815 2812 2810 2808 2806 2804 2802 2801 2800 2799 2798 2795 2792 2790 2787 2786 2784 2783 2783 2781 2778 2775 2773 2773 2772 2770 2768 2768 2767 2766 2764 2763 2762 2760 2759 2758 2756 2755 2753 2752 2751 2749 2748 2747 2746 2745 2744 2743 2743 2743 2743 2743 2743 2742 2743 2743 2743 2743 2744 2745 2746 2747 2749 2750 2748 2748 2749 2750
2854 2851 2848 2845 2843 2841 2840 2838 2835 2833 2830 2829 2827 2824 2822 2819 2817 2815 2813 2810 2808 2806 2804 2802 2799 2798 2798 2798 2797 2794 2791 2788 2785 2783 2781 2780 2780 2779 2777 2773 2771 2769 2769 2768 2766 2765 2764 2762 2761 2759 2758 2757 2756 2755 2753 2752 2750 2749 2747 2746 2745 2744 2743 2742 2741 2740 2740 2739 2739 2738 2738 2738 2738 2738 2739 2739 2740 2741 2742 2743 2743 2743 2742 2742 2743 2743
2851 2849 2846 2843 2841 2839 2838 2836 2834 2832 2829 2827 2824 2823 2820 2818 2815 2813 2811 2808 2806 2804 2802 2800 2798 2795 2793 2794 2794 2793 2790 2786 2783 2781 2779 2778 2777 2777 2775 2772 2769 2767 2766 2765 2763 2762 2760 2759 2758 2757 2755 2754 2753 2752 2750 2749 2747 2746 2744 2743 2742 2741 2740 2739 2738 2737 2737 2736 2735 2735 2735 2735 2735 2735 2735 2735 2735 2736 2736 2736 2736 2736 2737 2737 2738 2739
2848 2847 2844 2841 2839 2837 2835 2833 2832 2830 2827 2825 2822 2820 2818 2816 2814 2812 2809 2807 2805 2803 2801 2798 2797 2795 2792 2790 2790 2791 2789 2786 2782 2778 2777 2775 2774 2774 2773 2770 2767 2765 2763 2762 2761 2759 2758 2756 2755 2754 2753 2752 2750 2749 2748 2746 2744 2743 2741 2740 2739 2738 2737 2736 2735 2734 2733 2733 2732 2732 2731 2731 2731 2731 2731 2731 2731 2731 2731 2731 2731 2732 2732 2733 2734 2735
2845 2844 2842 2840 2837 2835 2833 2832 2830 2828 2825 2823 2820 2818 2815 2813 2812 2810 2808 2806 2804 2802 2800 2797 2795 2793 2792 2789 2788 2788 2787 2784 2780 2777 2774 2773 2772 2771 2770 2767 2764 2762 2761 2759 2758 2757 2755 2754 2753 2752 2751 2749 2748 2746 2745 2743 2742 2740 2739 2737 2736 2735 2734 2733 2732 2731 2730 2729 2729 2728 2728 2727 2727 2727 2727 2727 2727 2727 2727 2728 2728 2728 2728 2729 2730 2731
2843 2842 2841 2838 2836 2833 2831 2830 2828 2826 2823 2821 2818 2816 2813 2812 2810 2809 2807 2805 2803 2801 2799 2796 2794 2792 2790 2788 2787 2786 2785 2783 2779 2775 2773 2771 2769 2769 2768 2764 2762 2759 2758 2757 2756 2754 2753 2751 2750 2749 2748 2747 2745 2744 2742 2741 2739 2738 2736 2735 2733 2732 2731 2729 2728 2728 2727 2726 2725 2725 2724 2723 2723 2723 2723 2723 2723 2723 2723 2723 2723 2724 2724 2725 2726 2727
2841 2840 2839 2837 2834 2831 2829 2828 2826 2824 2822 2819 2817 2815 2813 2811 2809 2807 2805 2803 2801 2799 2797 2794 2792 2790 2789 2787 2785 2784 2783 2781 2778 2774 2771 2768 2768 2767 2765 2762 2759 2757 2756 2755 2754 2753 2751 2749 2748 2747 2745 2744 2743 2741 2740 2738 2737 2735 2734 2732 2731 2729 2728 2727 2725 2724 2723 2723 2722 2721 2721 2720 2720 2719 2719 2719 2719 2719 2719 2719 2720 2720 2720 2721 2722 2723
2840 2838 2837 2835 2833 2830 2828 2825 2823 2822 2821 2819 2817 2814 2811 2809 2807 2805 2803 2801 2799 2797 2795 2793 2791 2789 2787 2785 2784 2783 2782 2780 2777 2773 2769 2766 2764 2764 2763 2760 2758 2755 2753 2752 2751 2750 2748 2747 2745 2744 2743 2741 2740 2739 2737 2736 2734 2733 2731 2730 2728 2726 2725 2723 2722 2721 2720 2719 2719 2718 2718 2717 2717 2717 2716 2716 2716 2716 2716 2716 2716 2716 2717 2717 2718 2719
2839 2837 2835 2833 2831 2828 2826 2824 2823 2821 2820 2818 2816 2813 2810 2808 2806 2803 2801 2799 2797 2795 2793 2791 2789 2787 2786 2784 2783 2782 2781 2778 2775 2771 2768 2764 2762 2761 2761 2758 2755 2753 2751 2750 2748 2747 2746 2744 2743 2742 2740 2739 2738 2736 2735 2733 2732 2730 2728 2727 2725 2724 2722 2721 2720 2718 2718 2717 2716 2716 2715 2715 2714 2714 2713 2713 2713 2713 2713 2713 2713 2713 2713 2713 2713 2714
2837 2835 2833 2831 2829 2828 2826 2824 2822 2820 2818 2816 2814 2812 2809 2807 2805 2803 2800 2798 2796 2793 2791 2788 2787 2785 2784 2783 2782 2780 2779 2777 2774 2770 2766 2762 2759 2758 2758 2756 2753 2751 2749 2748 2746 2744 2743 2742 2741 2739 2738 2736 2735 2734 2732 2731 2729 2728 2726 2724 2723 2721 2720 2719 2718 2716 2716 2715 2714 2713 2712 2712 2711 2710 2710 2710 2709 2709 2709 2709 2709 2709 2709 2709 2709 2710
2836 2834 2832 2830 2828 2826 2824 2822 2820 2818 2817 2814 2812 2810 2808 2806 2803 2802 2799 2797 2795 2792 2790 2787 2785 2783 2782 2781 2780 2779 2778 2776 2773 2768 2764 2760 2758 2756 2756 2754 2751 2748 2746 2745 2744 2742 2740 2739 2738 2737 2735 2734 2733 2731 2730 2728 2727 2725 2723 2722 2720 2719 2718 2717 2715 2714 2713 2712 2711 2710 2709 2708 2708 2707 2707 2706 2706 2705 2705 2705 2705 2705 2705 2705 2705 2705
2834 2833 2831 2828 2827 2825 2823 2821 2820 2818 2816 2813 2811 2809 2807 2804 2802 2800 2798 2797 2794 2791 2788 2786 2783 2782 2780 2779 2778 2777 2775 2774 2771 2767 2763 2759 2756 2754 2753 2752 2749 2746 2744 2742 2741 2740 2738 2736 2735 2734 2733 2732 2730 2729 2728 2726 2724 2722 2721 2719 2718 2717 2716 2714 2713 2712 2711 2710 2708 2708 2707 2706 2705 2704 2703 2703 2702 2702 2701 2701 2701 2701 2700 2700 2700 2701
2833 2831 2829 2827 2825 2823 2822 2820 2818 2817 2815 2813 2811 2809 2806 2803 2801 2799 2797 2795 2793 2790 2787 2784 2782 2779 2778 2777 2775 2774 2773 2772 2769 2765 2762 2758 2755 2752 2751 2750 2748 2745 2742 2740 2738 2737 2735 2734 2733 2731 2730 2729 2728 2727 2725 2723 2721 2720 2719 2718 2716 2715 2714 2713 2712 2710 2709 2708 2707 2706 2705 2703 2703 2702 2701 2700 2699 2698 2698 2697 2697 2696 2696 2696 2696 2695
2831 2829 2828 2826 2824 2822 2820 2819 2817 2816 2814 2813 2811 2808 2806 2803 2800 2798 2795 2793 2791 2788 2786 2783 2780 2778 2776 2774 2773 2772 2771 2770 2767 2763 2760 2757 2754 2751 2749 2748 2746 2743 2740 2738 2736 2735 2734 2732 2730 2729 2728 2727 2725 2724 2723 2721 2720 2718 2717 2716 2715 2714 2713 2712 2710 2709 2708 2706 2705 2704 2703 2702 2701 2699 2698 2697 2696 2696 2695 2694 2694 2693 2693 2692 2691 2691
2829 2828 2826 2824 2823 2821 2819 2818 2816 2815 2813 2812 2810 2807 2805 2802 2799 2797 2794 2792 2789 2787 2784 2782 2779 2777 2774 2772 2771 2770 2770 2768 2766 2762 2758 2756 2753 2750 2749 2747 2745 2743 2739 2735 2733 2732 2732 2731 2729 2727 2725 2724 2723 2722 2720 2719 2718 2717 2716 2716 2715 2713 2712 2711 2709 2708 2707 2705 2704 2703 2702 2700 2699 2698 2697 2695 2694 2693 2692 2692 2691 2690 2689 2688 2688 2687
2828 2826 2825 2823 2822 2820 2818 2817 2815 2814 2812 2810 2808 2806 2803 2800 2798 2795 2792 2790 2788 2785 2783 2780 2778 2776 2773 2771 2768 2768 2767 2767 2765 2761 2758 2755 2752 2749 2748 2746 2744 2742 2739 2735 2731 2728 2728 2729 2728 2727 2725 2723 2722 2720 2719 2718 2717 2716 2715 2715 2714 2713 2711 2709 2708 2707 2706 2704 2703 2702 2700 2699 2698 2696 2695 2693 2693 2691 2690 2689 2688 2687 2686 2685 2684 2683
2826 2824 2823 2821 2820 2818 2817 2815 2813 2812 2810 2808 2806 2803 2801 2798 2796 2793 2791 2789 2787 2784 2782 2779 2777 2775 2773 2770 2768 2765 2764 2764 2763 2761 2757 2754 2751 2748 2746 2744 2742 2740 2739 2736 2732 2728 2725 2725 2726 2726 2725 2723 2721 2720 2718 2717 2716 2715 2714 2713 2712 2711 2710 2708 2707 2705 2704 2703 2701 2700 2698 2697 2695 2694 2693 2692 2691 2689 2688 2688 2687 2685 2683 2682 2681 2680
2824 2822 2821 2819 2818 2817 2815 2813 2811 2809 2807 2805 2803 2801 2799 2797 2794 2792 2790 2788 2786 2783 2781 2778 2776 2774 2773 2771 2768 2766 2764 2763 2761 2759 2756 2753 2750 2747 2745 2743 2741 2739 2738 2737 2734 2730 2726 2724 2724 2724 2724 2722 2720 2719 2718 2717 2716 2714 2713 2712 2710 2709 2708 2706 2704 2703 2701 2700 2699 2698 2696 2695 2693 2692 2691 2690 2689 2688 2687 2686 2684 2683 2682 2680 2679 2678
2822 2821 2819 2818 2816 2815 2813 2811 2809 2807 2805 2803 2801 2799 2797 2795 2793 2791 2789 2787 2785 2783 2781 2778 2775 2773 2771 2769 2768 2766 2764 2762 2760 2758 2755 2752 2749 2746 2744 2743 2740 2738 2736 2735 2734 2732 2729 2725 2723 2723 2723 2722 2720 2719 2718 2717 2715 2714 2712 2710 2709 2707 2706 2704 2703 2701 2699 2698 2697 2696 2694 2693 2692 2690 2689 2688 2686 2685 2684 2683 2682 2681 2679 2678 2677 2676
2821 2819 2818 2816 2814 2813 2811 2809 2807 2805 2803 2801 2799 2797 2795 2793 2792 2790 2788 2787 2784 2783 2780 2778 2775 2773 2770 2768 2766 2764 2763 2762 2760 2757 2755 2752 2748 2746 2743 2742 2739 2737 2735 2733 2732 2731 2729 2727 2724 2723 2722 2722 2721 2719 2718 2716 2715 2713 2712 2710 2708 2706 2704 2703 2701 2699 2698 2697 2695 2694 2693 2691 2690 2688 2687 2685 2684 2683 2682 2681 2680 2678 2677 2676 2674 2673
2819 2818 2816 2814 2813 2811 2809 2807 2805 2803 2802 2799 2798 2796 2794 2792 2791 2789 2788 2786 2784 2782 2780 2778 2775 2773 2770 2768 2765 2763 2762 2760 2759 2757 2754 2752 2748 2745 2743 2741 2739 2737 2734 2733 2731 2730 2728 2727 2725 2723 2722 2721 2721 2720 2718 2716 2714 2713 2711 2709 2708 2706 2704 2702 2700 2698 2697 2695 2694 2692 2691 2689 2688 2687 2685 2684 2682 2681 2679 2678 2677 2676 2675 2673 2672 2671
2818 2816 2814 2812 2810 2808 2807 2805 2803 2802 2800 2798 2796 2795 2793 2792 2790 2788 2787 2785 2783 2781 2779 2777 2775 2773 2771 2768 2765 2763 2760 2759 2758 2756 2754 2752 2748 2746 2743 2741 2739 2738 2735 2733 2731 2730 2728 2727 2725 2724 2723 2721 2720 2719 2718 2716 2715 2713 2711 2709 2708 2705 2703 2702 2700 2698 2696 2694 2693 2691 2689 2688 2687 2685 2684 2683 2681 2679 2678 2676 2675 2673 2672 2671 2670 2669
2816 2814 2813 2810 2808 2807 2805 2803 2801 2800 2798 2797 2795 2793 2792 2791 2789 2788 2786 2784 2782 2780 2778 2776 2774 2773 2771 2769 2766 2763 2761 2758 2757 2755 2753 2751 2748 2746 2743 2741 2739 2738 2736 2733 2731 2730 2728 2727 2726 2725 2723 2722 2720 2718 2717 2715 2714 2713 2711 2709 2707 2705 2703 2701 2699 2697 2695 2693 2691 2690 2688 2687 2685 2683 2682 2681 2679 2678 2676 2674 2673 2671 2670 2668 2667 2666
2814 2813 2811 2809 2807 2805 2803 2801 2800 2798 2797 2795 2793 2792 2791 2789 2788 2787 2785 2783 2781 2779 2777 2775 2773 2771 2770 2768 2766 2763 2761 2758 2756 2754 2752 2750 2748 2746 2743 2741 2739 2738 2736 2734 2732 2730 2728 2727 2725 2724 2723 2722 2720 2718 2716 2714 2713 2711 2710 2708 2707 2704 2702 2700 2698 2696 2694 2692 2690 2688 2686 2685 2683 2682 2680 2678 2677 2675 2673 2672 2670 2669 2668 2666 2665 2663
2813 2811 2809 2807 2805 2803 2802 2800 2798 2797 2795 2794 2793 2791 2790 2788 2787 2786 2784 2782 2780 2778 2776 2773 2772 2770 2768 2767 2765 2763 2760 2758 2756 2754 2752 2750 2748 2746 2743 2740 2738 2737 2736 2734 2733 2731 2729 2727 2725 2724 2723 2721 2719 2718 2717 2714 2712 2710 2708 2707 2705 2704 2702 2699 2697 2695 2693 2690 2688 2686 2684 2683 2681 2679 2677 2676 2674 2672 2670 2668 2667 2666 2665 2664 2663 2661
2811 2809 2808 2806 2804 2802 2800 2799 2797 2796 2794 2793 2792 2790 2789 2787 2786 2784 2783 2781 2779 2777 2774 2773 2771 2769 2767 2765 2764 2762 2760 2758 2755 2753 2751 2749 2747 2745 2743 2740 2738 2737 2736 2734 2733 2731 2729 2727 2726 2724 2723 2721 2719 2718 2716 2714 2712 2710 2708 2705 2703 2702 2701 2698 2696 2693 2691 2689 2687 2684 2683 2681 2679 2677 2675 2673 2672 2670 2668 2666 2665 2663 2663 2662 2661 2660
2810 2808 2806 2804 2803 2801 2800 2798 2797 2795 2794 2792 2791 2789 2788 2786 2784 2783 2781 2779 2778 2775 2773 2771 2769 2768 2766 2765 2763 2761 2759 2757 2755 2753 2750 2748 2746 2744 2742 2740 2738 2737 2736 2734 2733 2731 2730 2728 2726 2724 2723 2722 2720 2718 2716 2714 2712 2710 2708 2705 2703 2701 2699 2697 2695 2692 2690 2687 2685 2683 2681 2679 2678 2676 2674 2672 2671 2669 2667 2665 2663 2662 2661 2660 2659 2658
2808 2807 2805 2803 2802 2800 2799 2798 2796 2795 2793 2792 2790 2788 2786 2784 2783 2781 2779 2777 2775 2773 2771 2769 2768 2766 2765 2764 2763 2761 2758 2756 2754 2752 2750 2748 2746 2743 2742 2740 2738 2737 2735 2734 2733 2731 2730 2728 2727 2725 2723 2722 2720 2718 2716 2714 2712 2711 2708 2706 2703 2700 2698 2696 2694 2691 2689 2686 2684 2682 2680 2678 2676 2675 2673 2671 2669 2668 2666 2664 2663 2661 2660 2658 2657 2656
2807 2805 2804 2802 2801 2800 2798 2797 2796 2794 2793 2791 2789 2788 2786 2784 2782 2780 2778 2776 2774 2772 2770 2768 2766 2765 2763 2762 2761 2759 2758 2756 2753 2751 2749 2747 2745 2743 2741 2740 2738 2737 2736 2734 2733 2731 2730 2729 2727 2725 2723 2722 2720 2718 2715 2713 2712 2710 2708 2706 2703 2699 2696 2694 2692 2690 2688 2686 2683 2681 2679 2677 2675 2673 2672 2670 2668 2666 2665 2663 2662 2661 2659 2658 2657 2656
2806 2805 2803 2802 2801 2799 2798 2797 2795 2794 2792 2791 2789 2787 2785 2783 2781 2779 2777 2775 2773 2771 2769 2768 2765 2764 2762 2760 2759 2758 2757 2755 2753 2751 2749 2747 2745 2743 2741 2740 2738 2737 2736 2734 2733 2731 2730 2729 2728 2726 2724 2722 2720 2718 2716 2713 2712 2710 2708 2706 2703 2700 2697 2694 2691 2689 2687 2684 2683 2680 2678 2676 2674 2672 2670 2668 2667 2665 2663 2662 2661 2660 2659 2658 2657 2655
2805 2804 2803 2802 2800 2799 2798 2796 2795 2793 2792 2790 2788 2786 2784 2783 2780 2778 2776 2774 2772 2771 2769 2767 2764 2763 2761 2759 2758 2756 2755 2754 2753 2751 2749 2747 2745 2743 2741 2740 2738 2737 2736 2734 2733 2731 2730 2728 2727 2726 2724 2723 2721 2718 2716 2714 2712 2710 2708 2705 2703 2701 2698 2695 2692 2689 2686 2683 2681 2679 2678 2676 2673 2671 2669 2667 2666 2664 2663 2661 2660 2659 2658 2657 2656 2655
2805 2803 2802 2801 2800 2798 2797 2795 2794 2792 2791 2789 2788 2786 2784 2782 2780 2778 2776 2774 2772 2770 2768 2766 2764 2762 2760 2758 2756 2755 2754 2753 2751 2750 2748 2747 2745 2743 2742 2740 2738 2737 2736 2734 2733 2732 2730 2728 2727 2726 2724 2723 2721 2719 2717 2714 2712 2709 2707 2705 2703 2700 2698 2695 2693 2690 2687 2683 2681 2679 2677 2675 2673 2671 2668 2666 2664 2663 2662 2660 2659 2658 2657 2656 2655 2655
2804 2803 2802 2800 2799 2798 2796 2795 2793 2792 2790 2788 2787 2785 2783 2781 2779 2777 2775 2773 2771 2769 2768 2766 2764 2762 2760 2758 2756 2754 2752 2751 2750 2748 2747 2746 2745 2743 2742 2740 2738 2737 2736 2734 2733 2731 2730 2728 2727 2725 2724 2722 2721 2719 2717 2715 2713 2710 2707 2705 2702 2700 2698 2695 2693 2690 2687 2684 2681 2678 2676 2674 2672 2670 2668 2666 2664 2662 2661 2659 2658 2657 2657 2656 2655 2655
2804 2802 2801 2799 2798 2797 2795 2794 2792 2791 2789 2788 2786 2784 2783 2781 2778 2777 2775 2773 2771 2769 2767 2765 2763 2761 2760 2758 2756 2754 2752 2750 2749 2748 2746 2745 2744 2743 2742 2740 2739 2738 2736 2734 2733 2732 2730 2728 2727 2725 2723 2722 2720 2718 2717 2714 2712 2710 2708 2705 2703 2700 2698 2695 2693 2690 2687 2684 2681 2679 2676 2674 2672 2670 2668 2665 2663 2662 2661 2660 2658 2658 2657 2656 2656 2655
2803 2802 2800 2799 2797 2796 2794 2793 2792 2790 2788 2787 2785 2783 2782 2780 2778 2777 2774 2772 2770 2768 2767 2764 2762 2760 2759 2757 2755 2753 2752 2751 2749 2747 2746 2745 2743 2742 2741 2740 2739 2738 2736 2735 2733 2732 2730 2728 2727 2725 2723 2722 2720 2718 2716 2714 2712 2710 2708 2706 2703 2700 2698 2695 2693 2690 2687 2684 2682 2679 2677 2675 2673 2671 2668 2665 2663 2662 2661 2660 2659 2658 2658 2657 2656 2656
2803 2801 2800 2798 2797 2795 2794 2792 2791 2789 2788 2786 2784 2783 2781 2779 2778 2776 2774 2772 2770 2768 2766 2764 2762 2760 2758 2756 2754 2753 2751 2750 2748 2747 2746 2744 2743 2742 2741 2739 2738 2738 2737 2735 2734 2733 2731 2730 2728 2726 2723 2721 2719 2717 2715 2713 2712 2710 2708 2706 2704 2701 2698 2696 2693 2690 2687 2684 2682 2679 2677 2675 2673 2671 2669 2666 2664 2662 2661 2660 2660 2659 2659 2658 2658 2657
2803 2801 2800 2798 2797 2795 2793 2792 2790 2789 2787 2785 2784 2782 2780 2778 2777 2775 2773 2772 2770 2768 2766 2764 2762 2760 2758 2755 2754 2753 2751 2750 2748 2747 2745 2744 2743 2742 2740 2739 2738 2737 2736 2735 2734 2733 2732 2731 2729 2727 2725 2722 2719 2718 2716 2713 2712 2710 2708 2706 2704 2702 2699 2696 2693 2691 2688 2685 2683 2680 2678 2676 2674 2672 2669 2667 2665 2663 2662 2661 2661 2661 2660 2659 2659 2658